Orbital Elements at Epoch 2459000.5 (2020-May-31.0) TDB
Reference: JPL 9 (heliocentric ecliptic J2000)
Element | Value | Uncertainty (1-sigma) | Units |
e | .6289884592432134 | 7.8736e-06 | |
a | 2.544761439580827 | 5.2328e-05 | au |
q | .9441358625573408 | 6.3236e-07 | au |
i | 1.317384694332987 | 1.357e-05 | deg |
node | 279.752009075482 | 0.00050452 | deg |
peri | 290.8051666830394 | 0.00048383 | deg |
M | 13.74438196595245 | 0.00041288 | deg |
tp | 2458943.890182457978 (2020-Apr-04.39018246) | 4.7545e-05 | TDB |
period | 1482.753780098074 4.06 | 0.045734 0.0001252 | d yr |
n | .2427914902878807 | 7.4887e-06 | deg/d |
Q | 4.145387016604313 | 8.5241e-05 | au |
|
| | Orbit Determination Parameters
Additional Information
|